Regional Weather Roundup
Issued by NWS

Home | Current Version | Previous Version | Graphics & Text | Print | Product List | Glossary On
Versions: 1 2 3 4 5 6 7 8 9 10 11 12 13 14 15 16 17 18 19 20 21 22 23 24 25 26 27 28 29 30 31 32 33 34 35 36 37 38 39 40 41 42 43 44 45 46 47 48 49 50
000
ASUS43 KOAX 231002
RWRNE

WEATHER ROUNDUP FOR NEBRASKA
NATIONAL WEATHER SERVICE OMAHA NE
500 AM CDT SAT MAY 23 2015

NOTES: SATELLITE DATA IS BEING USED TO AUGMENT CLOUD COVER ABOVE
       12000 FEET.
       "FAIR" INDICATES FEW OR NO CLOUDS BELOW 12,000 FEET WITH NO
       SIGNIFICANT WEATHER AND/OR OBSTRUCTIONS TO VISIBILITY.

  * THESE STATIONS DO NOT REPORT WEATHER SUCH AS RAIN...SNOW OR FOG.

NEZ001>004-019>022-054>056-231100-
NEBRASKA PANHANDLE

CITY           SKY/WX    TMP DP  RH WIND       PRES   REMARKS
SCOTTSBLUFF    CLOUDY    46  45  96 E8        30.04F FOG
ALLIANCE       FOG       47  46  97 S8        30.05R VSB 3/4
CHADRON        CLOUDY    47  45  93 CALM      30.05F
SIDNEY         FOG       48  48 100 CALM      30.05S VSB 1/4
$$

NEZ057>060-069>072-079>082-231100-
SOUTHWEST NEBRASKA

CITY           SKY/WX    TMP DP  RH WIND       PRES   REMARKS
NORTH PLATTE   LGT RAIN  53  51  93 SE15      30.02F
IMPERIAL       LGT RAIN  52  51  97 E17       30.00F
LEXINGTON      CLOUDY    54  53  97 SE9       30.11R FOG
MCCOOK         LGT RAIN  53  53 100 E8        30.08F
$$

NEZ005>010-023>029-035>040-094-231100-
NORTH CENTRAL NEBRASKA

CITY           SKY/WX    TMP DP  RH WIND       PRES   REMARKS
VALENTINE      LGT RAIN  48  47  96 E7        30.10F
AINSWORTH      DRIZZLE   51  51 100 SE6       30.10S
BROKEN BOW       N/A     53  52  96 SE10      30.10S FOG
ORD            CLOUDY    52  50  93 SE8       30.11S
$$

NEZ041-046>049-061>064-073>077-083>087-231100-
SOUTH CENTRAL NEBRASKA

CITY           SKY/WX    TMP DP  RH WIND       PRES   REMARKS
GRAND ISLAND   CLOUDY    52  49  89 SE8       30.14F
AURORA         CLOUDY    53  50  90 SE8       30.15S
HASTINGS       CLOUDY    53  50  89 SE8       30.13F
KEARNEY *      CLOUDY    52  50  93 SE10      30.12S
$$

NEZ011>018-030>034-042>045-231100-
NORTHEAST NEBRASKA

CITY           SKY/WX    TMP DP  RH WIND       PRES   REMARKS
NORFOLK        CLOUDY    54  49  83 E5        30.17S
BLAIR          CLOUDY    58  49  72 S6        30.20S
COLUMBUS *     CLOUDY    55  43  62 SE6       30.20S
FREMONT        CLOUDY    58  49  73 SE5       30.19F
TEKAMAH        CLOUDY    57  51  80 SE7       30.19S
$$

NEZ050>053-065>068-078-088>093-231100-
SOUTHEAST NEBRASKA

CITY           SKY/WX    TMP DP  RH WIND       PRES   REMARKS
LINCOLN        CLOUDY    57  49  74 SE9       30.19S
OMAHA EPPLEY   CLOUDY    59  50  72 S5        30.20R
BEATRICE       CLOUDY    56  51  83 S6        30.17S
FALLS CITY     CLOUDY    57  52  83 E5        30.19R
NEBRASKA CITY  LGT RAIN  55  52  89 CALM      30.19S
PLATTSMOUTH    CLOUDY    55  49  79 E3        30.20S
$$

NEZ044-045-051>053-067-231100-
OMAHA AREA

CITY           SKY/WX    TMP DP  RH WIND       PRES   REMARKS
OMAHA EPPLEY   CLOUDY    59  50  72 S5        30.20R
BLAIR          CLOUDY    58  49  72 S6        30.20S
FREMONT        CLOUDY    58  49  73 SE5       30.19F
OFFUTT AFB     MOCLDY    55  50  82 SE1       30.19S
PLATTSMOUTH    CLOUDY    55  49  79 E3        30.20S
WAHOO          CLOUDY    57  49  76 SE6       30.19S
$$


USA.gov is the U.S. government's official web portal to all federal, state and local government web resources and services.